This is the latest recevied weather packets stored in our database for station/object WV6L-13. If no packets are shown the sender has not sent any weather packets the latest 1 day(s).
| Time | Temp. | Humidity | Pressure | Rain* | Wind** | Luminosity | Snow |
|---|---|---|---|---|---|---|---|
| 1778054092 | 12.22° C | 44% | 925.2 hPa | - | 0.89 m/s, 156° | - | - |
| 1778053792 | 11.67° C | 45% | 925.2 hPa | - | 0.45 m/s, 160° | - | - |
| 1778053493 | 11.67° C | 44% | 925.3 hPa | - | 1.79 m/s, 141° | - | - |
| 1778053193 | 12.22° C | 44% | 925.2 hPa | - | 0.89 m/s, 154° | - | - |
| 1778052893 | 12.22° C | 44% | 925.2 hPa | - | 1.34 m/s, 155° | - | - |
| 1778052593 | 12.22° C | 44% | 925.1 hPa | - | 0.45 m/s, 174° | - | - |
| 1778052293 | 11.67° C | 45% | 925.2 hPa | - | 0.89 m/s, 159° | - | - |
| 1778051993 | 12.78° C | 44% | 925.1 hPa | - | 1.79 m/s, 140° | - | - |
| 1778051693 | 13.33° C | 42% | 925.1 hPa | - | 0.89 m/s, 110° | - | - |
| 1778051093 | 12.78° C | 42% | 925 hPa | - | 0.45 m/s, 180° | - | - |
| 1778050793 | 12.78° C | 43% | 925.1 hPa | - | 0.89 m/s, 192° | - | - |
| 1778050493 | 13.89° C | 41% | 924.8 hPa | - | 0.89 m/s, 204° | - | - |
| 1778049293 | 14.44° C | 40% | 924.8 hPa | - | 0.89 m/s, 288° | - | - |
| 1778048993 | 13.89° C | 40% | 924.7 hPa | - | 0.89 m/s, 297° | - | - |
| 1778048092 | 14.44° C | 40% | 924.5 hPa | - | 0.89 m/s, 45° | - | - |
| 1778047793 | 14.44° C | 41% | 924.6 hPa | - | 0.89 m/s, 28° | - | - |
| 1778047493 | 14.44° C | 41% | 924.7 hPa | - | 0.89 m/s, 12° | - | - |
| 1778047193 | 14.44° C | 41% | 924.6 hPa | - | 0.89 m/s, 15° | - | - |
| 1778046893 | 14.44° C | 42% | 924.6 hPa | - | 0.89 m/s, 70° | - | - |
| 1778046593 | 15° C | 41% | 924.6 hPa | - | 0.89 m/s, 90° | - | - |
| 1778046293 | 14.44° C | 41% | 924.6 hPa | - | 1.34 m/s, 90° | - | - |
| 1778045993 | 14.44° C | 41% | 924.4 hPa | - | 1.79 m/s, 105° | - | - |
| 1778045693 | 15° C | 39% | 924.4 hPa | - | 1.34 m/s, 103° | - | - |
| 1778045392 | 15° C | 39% | 924.4 hPa | - | 0.89 m/s, 95° | - | - |
| 1778045093 | 15° C | 40% | 924.4 hPa | - | 1.34 m/s, 100° | - | - |
* Rain since midnight (hover to see other rain measurements)
** Current wind speed in m/s (hover to see current wind gust speed)